Showing default

YAOGAN 20A, 40109

Orbit data source: Space-Track

YAOGAN 20A, 40109 is a payload satellite owned by PLA GAD (CN) in LEO that was launched on Sat, 09 Aug 2014 UTC via a CHANG ZHENG 4C launch vehicle from the Jiuquan Satellite Launch Center, China (JSC). Payload-class satellites include a variety of spacecraft equipped with specific instruments for various scientific and technological missions. These include communications satellites like Starlink; space stations such as the ISS; scientific satellites like the Hubble; Earth observation satellites from companies like Planet Labs, Umbra, and HawkEye 360; GPS; miniature CubeSats for education and research; and military/defense satellites.

Loading next visibility...
Identifier
40109, 2014-047A
Orbit
LEO
Country
Flag of CNCN / PRC
Related business
Manufacturer
CAST
Mission
Operational Defense Sigint
Bus & Motor
JB-8, Unknown motor
Mass
~500 kg wet, ~500 kg dry
Launch date (UTC)
2014-08-09 (12 years ago)
Launch vehicle
CHANG ZHENG 4C
Launch site
Jiuquan Satellite Launch Center, China (JSC)
Object type
Payload
Rocket body
Debris
Shape & HBR
Box + 2 Pan, 0.5 m
Radar Cross Section
0.446 m², Large (>1 m²)

Expand to show TLE details & history
Last TLE update: 5 hours ago

TLE from 5 hours ago
0 YAOGAN 20A
1 40109U 14047A   26070.99484442 -.00000077  00000-0  15476-4 0  9991
2 40109  63.3787 269.7225 0381684  14.1572 346.9801 13.45432902569366
Epoch: 2026-03-11T23:52Z
TLE epoch observation values (Epoch: 2026-03-11T23:52:34.557Z)
Latitude
-0.00004°
Longitude
101.9274°
Altitude
813.748 km
Speed
7.584 km/s
True Right ascension
17h 58m 53s
True Declination
0° 00' 00"
Sunlit
Object was in daylight at epoch
Visualization orbit readout
Latitude
Unknown
Longitude
Unknown
Altitude
Unknown
Speed
Unknown
Apparent Right ascension
Unknown
Apparent Declination
Unknown
Sunlit
N/A
Visualization observer readout
Local Sidereal Time
08:42:11
Azimuth
Unknown
Elevation
Unknown
Doppler factor
Unknown
Orbital elements
Apogee altitude
1,372.907 km
Perigee altitude
802.971 km
Semi-major axis
7,466.076 km
Eccentricity
0.03817
Inclination
63.3787°
RAAN
269.7225°
Arg. of periapsis
14.1572°
True anomaly
345.94685°
Mean anomaly
346.9801°
Eccentric anomaly
346.46841°
Mean motion
3.36438 °/min
Orbital period
107 mins
BSTAR
0.000015476
Loading maneuver chart data...
Computing Atmospheric mass density...
Loading historical data...
Loading historical data...
Loading historical data...
Loading historical data...
Loading historical data...
Loading historical data...
Loading historical data...

Documentation

Showing up to 5 results
|